{"data":{"norad_id":57702,"epoch":"2026-09-20T21:56:41.829792Z","epoch_age_seconds":95793,"freshness":"FRESH","line1":"1 57702U 23129E   26263.91437303 -.00000499  00000+0 -85959-5 0  9991","line2":"2 57702  43.0043  95.0447 0001329 276.6151  83.4549 15.27572361170548","mean_motion":15.27572361,"eccentricity":0.0001329,"inclination_deg":43.0043,"raan_deg":95.0447,"arg_perigee_deg":276.6151,"mean_anomaly_deg":83.4549,"bstar":-8.5959e-6,"rev_number":17054,"period_min":94.267220117633,"perigee_km":482.16011537697,"apogee_km":483.98382472121,"semimajor_km":6861.2089700491,"source":"CELESTRAK","updated_at":"2026-09-21T09:00:33.674587Z"}}